ARG1365 SPJC-SABE

Flight info

Callsign ARG1365
Flight time N/A
Altitude 35000
Route SCO UL550 ALDAX/N0458F370 UL550 LOA UM543 CBA UW24 SNT
Aircraft B38M/M-SDE1FGHILORVWXY/HB1

Departure

Time 2026-05-06 16:59
Airport Jorge Chávez International Airport (SPJC)

Arrival

Time N/A
Airport Aeroparque Jorge Newbery (SABE)
Time Latitude Longitude Altitude Speed Heading
2026-05-06 16:13 -12.03153 -77.11836 83 ft 0 kts 64°
2026-05-06 16:39 -12.03157 -77.11844 82 ft 4 kts 64°
2026-05-06 16:40 -12.03158 -77.11846 88 ft 0 kts 68°
2026-05-06 16:40 -12.03153 -77.11836 82 ft 0 kts 64°
2026-05-06 16:43 -12.03154 -77.11837 82 ft 1 kts 64°
2026-05-06 16:43 -12.03164 -77.11859 87 ft 4 kts 64°
2026-05-06 16:43 -12.03175 -77.11880 68 ft 4 kts 40°
2026-05-06 16:44 -12.03193 -77.11882 68 ft 4 kts 332°
2026-05-06 16:44 -12.03217 -77.11868 71 ft 4 kts 330°
2026-05-06 16:44 -12.03224 -77.11864 71 ft 0 kts 334°
2026-05-06 16:49 -12.03223 -77.11864 71 ft 1 kts 333°
2026-05-06 16:49 -12.03213 -77.11869 70 ft 3 kts 333°
2026-05-06 16:49 -12.03190 -77.11881 68 ft 5 kts 334°
2026-05-06 16:49 -12.03157 -77.11897 67 ft 6 kts 334°
2026-05-06 16:50 -12.03114 -77.11918 71 ft 8 kts 334°
2026-05-06 16:50 -12.03057 -77.11947 70 ft 10 kts 334°
2026-05-06 16:50 -12.02985 -77.11982 69 ft 13 kts 334°
2026-05-06 16:50 -12.02924 -77.12012 69 ft 17 kts 334°
2026-05-06 16:51 -12.02733 -77.12105 68 ft 27 kts 334°
2026-05-06 16:51 -12.02561 -77.12190 64 ft 28 kts 334°
2026-05-06 16:51 -12.02384 -77.12277 59 ft 27 kts 334°
2026-05-06 16:51 -12.02228 -77.12353 55 ft 15 kts 334°
2026-05-06 16:52 -12.02151 -77.12391 47 ft 12 kts 334°
2026-05-06 16:52 -12.02102 -77.12391 52 ft 8 kts 47°
2026-05-06 16:52 -12.02080 -77.12344 49 ft 8 kts 64°
2026-05-06 16:52 -12.02051 -77.12284 53 ft 13 kts 64°
2026-05-06 16:53 -12.02000 -77.12178 56 ft 21 kts 64°
2026-05-06 16:53 -12.01924 -77.12017 63 ft 29 kts 64°
2026-05-06 16:53 -12.01851 -77.11866 60 ft 13 kts 64°
2026-05-06 16:53 -12.01815 -77.11808 70 ft 9 kts 31°
2026-05-06 16:54 -12.01751 -77.11822 67 ft 11 kts 333°
2026-05-06 16:54 -12.01672 -77.11864 63 ft 15 kts 333°
2026-05-06 16:54 -12.01567 -77.11918 63 ft 19 kts 333°
2026-05-06 16:54 -12.01438 -77.11982 65 ft 22 kts 334°
2026-05-06 16:55 -12.01323 -77.12039 59 ft 16 kts 333°
2026-05-06 16:55 -12.01251 -77.12110 55 ft 16 kts 304°
2026-05-06 16:55 -12.01171 -77.12180 55 ft 15 kts 330°
2026-05-06 16:55 -12.01068 -77.12230 48 ft 16 kts 334°
2026-05-06 16:56 -12.00968 -77.12280 54 ft 10 kts 335°
2026-05-06 16:56 -12.00926 -77.12300 51 ft 3 kts 335°
2026-05-06 16:56 -12.00899 -77.12312 52 ft 5 kts 339°
2026-05-06 16:56 -12.00864 -77.12315 53 ft 3 kts 36°
2026-05-06 16:57 -12.00850 -77.12290 53 ft 7 kts 65°
2026-05-06 16:57 -12.00815 -77.12218 54 ft 15 kts 63°
2026-05-06 16:57 -12.00795 -77.12131 54 ft 11 kts 118°
2026-05-06 16:57 -12.00861 -77.12087 48 ft 14 kts 155°
2026-05-06 16:58 -12.01050 -77.11994 56 ft 60 kts 154°
2026-05-06 16:58 -12.01629 -77.11709 68 ft 123 kts 154°
2026-05-06 16:58 -12.02542 -77.11254 135 ft 163 kts 154°
2026-05-06 16:58 -12.03580 -77.10730 608 ft 173 kts 156°
2026-05-06 16:59 -12.04676 -77.10197 1178 ft 177 kts 156°
2026-05-06 16:59 -12.05783 -77.09662 1680 ft 176 kts 155°
2026-05-06 16:59 -12.06888 -77.09131 2126 ft 173 kts 155°
2026-05-06 16:59 -12.07959 -77.08594 2596 ft 173 kts 154°
2026-05-06 17:00 -12.09065 -77.08042 2974 ft 178 kts 154°
2026-05-06 17:00 -12.10183 -77.07488 3401 ft 183 kts 154°
2026-05-06 17:00 -12.11403 -77.06885 3552 ft 206 kts 154°
2026-05-06 17:00 -12.12777 -77.06249 3750 ft 230 kts 161°
2026-05-06 17:01 -12.14421 -77.06028 3977 ft 251 kts 190°
2026-05-06 17:01 -12.15517 -77.06433 4469 ft 249 kts 211°
2026-05-06 17:01 -12.16842 -77.07637 4892 ft 264 kts 226°
2026-05-06 17:01 -12.18172 -77.09002 5309 ft 276 kts 224°
2026-05-06 17:02 -12.19533 -77.10358 5834 ft 279 kts 223°
2026-05-06 17:02 -12.20884 -77.11693 6561 ft 276 kts 223°
2026-05-06 17:02 -12.22277 -77.13064 7110 ft 282 kts 223°
2026-05-06 17:02 -12.23694 -77.14453 7727 ft 283 kts 223°
2026-05-06 17:03 -12.25129 -77.15858 8246 ft 288 kts 223°
2026-05-06 17:03 -12.26578 -77.17277 8871 ft 290 kts 223°
2026-05-06 17:03 -12.28094 -77.18688 9434 ft 293 kts 213°
2026-05-06 17:03 -12.29926 -77.19483 10033 ft 292 kts 189°
2026-05-06 17:04 -12.31985 -77.19473 10303 ft 305 kts 168°
2026-05-06 17:04 -12.34128 -77.19022 10446 ft 323 kts 168°
2026-05-06 17:04 -12.36382 -77.18551 10629 ft 337 kts 168°
2026-05-06 17:04 -12.38690 -77.18061 11091 ft 340 kts 168°
2026-05-06 17:05 -12.41022 -77.17562 11586 ft 344 kts 167°
2026-05-06 17:05 -12.43369 -77.17059 12141 ft 346 kts 167°
2026-05-06 17:05 -12.45734 -77.16551 12761 ft 347 kts 167°
2026-05-06 17:05 -12.48112 -77.16040 13312 ft 352 kts 167°
2026-05-06 17:06 -12.50518 -77.15523 13912 ft 354 kts 167°
2026-05-06 17:06 -12.52939 -77.15003 14454 ft 357 kts 167°
2026-05-06 17:06 -12.55381 -77.14478 15004 ft 360 kts 167°
2026-05-06 17:06 -12.57840 -77.13949 15539 ft 363 kts 167°
2026-05-06 17:07 -12.60317 -77.13417 16076 ft 365 kts 167°
2026-05-06 17:07 -12.62811 -77.12881 16601 ft 368 kts 167°
2026-05-06 17:07 -12.65324 -77.12340 17110 ft 370 kts 167°
2026-05-06 17:07 -12.67859 -77.11795 17608 ft 373 kts 167°
2026-05-06 17:08 -12.70407 -77.11246 18104 ft 376 kts 167°
2026-05-06 17:08 -12.72973 -77.10694 18535 ft 378 kts 167°
2026-05-06 17:08 -12.75564 -77.10136 18918 ft 382 kts 167°
2026-05-06 17:08 -12.78164 -77.09577 19307 ft 385 kts 167°
2026-05-06 17:09 -12.80797 -77.09009 19696 ft 387 kts 167°
2026-05-06 17:09 -12.83412 -77.08446 20061 ft 391 kts 167°
2026-05-06 17:09 -12.86081 -77.07871 20432 ft 394 kts 167°
2026-05-06 17:09 -12.88811 -77.07283 20781 ft 398 kts 167°
2026-05-06 17:10 -12.91531 -77.06697 21134 ft 401 kts 168°
2026-05-06 17:10 -12.94239 -77.06113 21487 ft 405 kts 168°
2026-05-06 17:10 -12.96998 -77.05517 21854 ft 408 kts 168°
2026-05-06 17:10 -12.99791 -77.04915 22225 ft 410 kts 168°
2026-05-06 17:11 -13.02592 -77.04311 22579 ft 414 kts 168°
2026-05-06 17:11 -13.05392 -77.03537 22844 ft 419 kts 156°
2026-05-06 17:11 -13.07898 -77.02033 23257 ft 420 kts 140°
2026-05-06 17:11 -13.09980 -76.99919 23603 ft 422 kts 131°
2026-05-06 17:12 -13.11930 -76.97654 23894 ft 426 kts 130°
2026-05-06 17:12 -13.13863 -76.95345 24215 ft 427 kts 129°
2026-05-06 17:12 -13.15788 -76.93014 24555 ft 429 kts 129°
2026-05-06 17:12 -13.17714 -76.90657 24826 ft 433 kts 129°
2026-05-06 17:13 -13.19653 -76.88274 25101 ft 436 kts 129°
2026-05-06 17:13 -13.21595 -76.85883 25439 ft 438 kts 129°
2026-05-06 17:13 -13.23549 -76.83476 25758 ft 440 kts 128°
2026-05-06 17:13 -13.25514 -76.81056 26070 ft 443 kts 128°
2026-05-06 17:14 -13.27492 -76.78618 26371 ft 445 kts 128°
2026-05-06 17:14 -13.29478 -76.76169 26673 ft 447 kts 128°
2026-05-06 17:14 -13.31474 -76.73707 26975 ft 450 kts 128°
2026-05-06 17:14 -13.33482 -76.71231 27272 ft 452 kts 128°
2026-05-06 17:15 -13.35500 -76.68741 27567 ft 455 kts 128°
2026-05-06 17:15 -13.37516 -76.66252 27861 ft 457 kts 128°
2026-05-06 17:15 -13.39556 -76.63734 28146 ft 459 kts 127°
2026-05-06 17:15 -13.41602 -76.61206 28426 ft 461 kts 127°
2026-05-06 17:16 -13.43659 -76.58666 28706 ft 464 kts 127°
2026-05-06 17:16 -13.45725 -76.56113 28981 ft 466 kts 127°
2026-05-06 17:16 -13.47802 -76.53546 29250 ft 468 kts 127°
2026-05-06 17:16 -13.49888 -76.50967 29519 ft 471 kts 127°
2026-05-06 17:17 -13.51983 -76.48375 29782 ft 473 kts 127°
2026-05-06 17:17 -13.54082 -76.45777 30075 ft 474 kts 127°
2026-05-06 17:17 -13.56165 -76.43200 30275 ft 476 kts 127°
2026-05-06 17:17 -13.58314 -76.40541 30498 ft 478 kts 127°
2026-05-06 17:18 -13.60440 -76.37908 30710 ft 480 kts 127°
2026-05-06 17:18 -13.62550 -76.35294 30919 ft 482 kts 127°
2026-05-06 17:18 -13.64694 -76.32637 31128 ft 484 kts 127°
2026-05-06 17:18 -13.66847 -76.29968 31327 ft 486 kts 127°
2026-05-06 17:19 -13.69002 -76.27297 31536 ft 488 kts 128°
2026-05-06 17:19 -13.71172 -76.24606 31750 ft 489 kts 128°
2026-05-06 17:19 -13.73373 -76.21922 31935 ft 492 kts 132°
2026-05-06 17:19 -13.75986 -76.19641 32167 ft 494 kts 142°
2026-05-06 17:20 -13.78717 -76.17479 32313 ft 497 kts 141°
2026-05-06 17:20 -13.81456 -76.15293 32518 ft 499 kts 141°
2026-05-06 17:20 -13.84205 -76.13117 32761 ft 499 kts 142°
2026-05-06 17:20 -13.86959 -76.10943 33069 ft 498 kts 142°
2026-05-06 17:21 -13.89711 -76.08771 33339 ft 498 kts 142°
2026-05-06 17:21 -13.92458 -76.06602 33583 ft 498 kts 142°
2026-05-06 17:21 -13.95210 -76.04428 33846 ft 498 kts 142°
2026-05-06 17:21 -13.97961 -76.02255 34066 ft 499 kts 142°
2026-05-06 17:22 -14.00713 -76.00080 34290 ft 498 kts 142°
2026-05-06 17:22 -14.03462 -75.97907 34528 ft 498 kts 142°
2026-05-06 17:22 -14.06206 -75.95737 34762 ft 497 kts 142°
2026-05-06 17:22 -14.08941 -75.93574 34998 ft 497 kts 142°
2026-05-06 17:23 -14.11683 -75.91404 35234 ft 496 kts 142°
2026-05-06 17:23 -14.14416 -75.89241 35465 ft 495 kts 142°
2026-05-06 17:23 -14.17147 -75.87079 35694 ft 495 kts 143°
2026-05-06 17:23 -14.19875 -75.84918 35910 ft 495 kts 143°
2026-05-06 17:24 -14.22606 -75.82755 36133 ft 494 kts 143°
2026-05-06 17:24 -14.25328 -75.80598 36343 ft 494 kts 143°
2026-05-06 17:24 -14.28045 -75.78444 36567 ft 493 kts 143°
2026-05-06 17:24 -14.30765 -75.76287 36808 ft 492 kts 143°
2026-05-06 17:25 -14.33474 -75.74138 36992 ft 491 kts 143°
2026-05-06 17:25 -14.38846 -75.69875 36978 ft 488 kts 143°
2026-05-06 17:26 -14.44227 -75.65603 37000 ft 489 kts 143°
2026-05-06 17:26 -14.49608 -75.61327 37009 ft 489 kts 143°
2026-05-06 17:27 -14.55010 -75.57032 37003 ft 491 kts 143°
2026-05-06 17:27 -14.60423 -75.52725 36997 ft 491 kts 143°
2026-05-06 17:28 -14.65833 -75.48419 36998 ft 491 kts 143°
2026-05-06 17:28 -14.71241 -75.44110 36989 ft 491 kts 143°
2026-05-06 17:29 -14.76646 -75.39802 36994 ft 490 kts 143°
2026-05-06 17:29 -14.82034 -75.35504 36988 ft 489 kts 143°
2026-05-06 17:30 -14.87421 -75.31205 36979 ft 489 kts 143°
2026-05-06 17:30 -14.92809 -75.26902 36995 ft 490 kts 143°
2026-05-06 17:31 -14.98194 -75.22598 36999 ft 489 kts 143°
2026-05-06 17:31 -15.03543 -75.18321 37000 ft 489 kts 143°
2026-05-06 17:32 -15.08922 -75.14017 37006 ft 489 kts 143°
2026-05-06 17:32 -15.14302 -75.09708 37006 ft 489 kts 143°
2026-05-06 17:33 -15.19700 -75.05384 37018 ft 491 kts 143°
2026-05-06 17:33 -15.25092 -75.01060 37014 ft 490 kts 143°
2026-05-06 17:34 -15.30480 -74.96737 37021 ft 490 kts 143°
2026-05-06 17:34 -15.35871 -74.92409 37019 ft 490 kts 143°
2026-05-06 17:35 -15.41257 -74.88081 37022 ft 490 kts 143°
2026-05-06 17:35 -15.46641 -74.83752 37026 ft 490 kts 143°
2026-05-06 17:36 -15.54746 -74.77232 37017 ft 492 kts 144°
2026-05-06 17:36 -15.60152 -74.72878 37019 ft 492 kts 144°
2026-05-06 17:37 -15.65550 -74.68528 37016 ft 492 kts 144°
2026-05-06 17:37 -15.70956 -74.64168 37015 ft 492 kts 144°
2026-05-06 17:38 -15.76360 -74.59807 37018 ft 492 kts 144°
2026-05-06 17:38 -15.81728 -74.55473 37020 ft 493 kts 144°
2026-05-06 17:39 -15.87135 -74.51103 37016 ft 493 kts 144°
2026-05-06 17:39 -15.92543 -74.46729 37015 ft 493 kts 144°
2026-05-06 17:40 -15.97958 -74.42347 37012 ft 493 kts 144°
2026-05-06 17:40 -16.03370 -74.37965 37013 ft 493 kts 144°
2026-05-06 17:41 -16.08776 -74.33583 37012 ft 492 kts 144°
2026-05-06 17:41 -16.14170 -74.29210 37017 ft 492 kts 144°
2026-05-06 17:42 -16.19578 -74.24821 37013 ft 493 kts 144°
2026-05-06 17:42 -16.24980 -74.20434 37015 ft 493 kts 144°
2026-05-06 17:43 -16.30387 -74.16040 37013 ft 493 kts 144°
2026-05-06 17:43 -16.35794 -74.11643 37013 ft 493 kts 144°
2026-05-06 17:44 -16.41202 -74.07242 37018 ft 493 kts 144°
2026-05-06 17:44 -16.46603 -74.02844 37018 ft 495 kts 144°
2026-05-06 17:45 -16.52027 -73.98424 37019 ft 494 kts 144°
2026-05-06 17:45 -16.57432 -73.94013 37014 ft 493 kts 144°
2026-05-06 17:46 -16.62839 -73.89596 37018 ft 493 kts 144°
2026-05-06 17:46 -16.68237 -73.85184 37019 ft 493 kts 144°
2026-05-06 17:47 -16.72727 -73.81512 37021 ft 493 kts 144°
2026-05-06 17:47 -16.78133 -73.77088 37021 ft 495 kts 144°
2026-05-06 17:48 -16.84438 -73.71925 37020 ft 496 kts 144°
2026-05-06 17:48 -16.89860 -73.67480 37020 ft 496 kts 144°
2026-05-06 17:49 -16.94407 -73.63751 37024 ft 495 kts 144°
2026-05-06 17:49 -16.99787 -73.59335 37022 ft 494 kts 144°
2026-05-06 17:50 -17.05225 -73.54867 37021 ft 494 kts 144°
2026-05-06 17:50 -17.10601 -73.50449 37023 ft 496 kts 144°
2026-05-06 17:51 -17.16026 -73.45986 37021 ft 496 kts 144°
2026-05-06 17:51 -17.21449 -73.41520 37024 ft 496 kts 144°
2026-05-06 17:52 -17.26862 -73.37060 37021 ft 496 kts 144°
2026-05-06 17:52 -17.32282 -73.32591 37023 ft 496 kts 144°
2026-05-06 17:53 -17.37702 -73.28119 37033 ft 495 kts 144°
2026-05-06 17:53 -17.43106 -73.23656 37020 ft 496 kts 144°
2026-05-06 17:54 -17.48523 -73.19179 37021 ft 496 kts 144°
2026-05-06 17:54 -17.53934 -73.14703 37021 ft 496 kts 144°
2026-05-06 17:55 -17.59344 -73.10225 37020 ft 496 kts 144°
2026-05-06 17:55 -17.64756 -73.05741 37021 ft 496 kts 144°
2026-05-06 17:56 -17.70125 -73.01290 37027 ft 496 kts 144°
2026-05-06 17:56 -17.75543 -72.96795 37021 ft 497 kts 144°
2026-05-06 17:57 -17.80965 -72.92292 37022 ft 496 kts 144°
2026-05-06 17:57 -17.86372 -72.87799 37019 ft 496 kts 144°
2026-05-06 17:58 -17.91781 -72.83300 37020 ft 496 kts 144°
2026-05-06 17:58 -17.97187 -72.78800 37019 ft 496 kts 144°
2026-05-06 17:59 -18.02589 -72.74299 37019 ft 496 kts 144°
2026-05-06 17:59 -18.07996 -72.69791 37019 ft 496 kts 144°
2026-05-06 18:00 -18.13403 -72.65280 37022 ft 496 kts 144°
2026-05-06 18:00 -18.18812 -72.60763 37023 ft 496 kts 144°
2026-05-06 18:01 -18.24124 -72.56324 37019 ft 495 kts 144°
2026-05-06 18:01 -18.29514 -72.51816 37017 ft 495 kts 144°
2026-05-06 18:02 -18.34705 -72.47472 37022 ft 497 kts 144°
2026-05-06 18:02 -18.40124 -72.42935 37022 ft 497 kts 144°
2026-05-06 18:03 -18.45530 -72.38406 37018 ft 497 kts 144°
2026-05-06 18:03 -18.50911 -72.33895 37021 ft 497 kts 144°
2026-05-06 18:04 -18.56321 -72.29356 37028 ft 497 kts 144°
2026-05-06 18:04 -18.61727 -72.24816 37030 ft 498 kts 144°
2026-05-06 18:05 -18.67155 -72.20253 37022 ft 498 kts 144°
2026-05-06 18:05 -18.72570 -72.15698 37019 ft 498 kts 144°
2026-05-06 18:06 -18.77991 -72.11134 37025 ft 498 kts 144°
2026-05-06 18:06 -18.83403 -72.06574 37023 ft 498 kts 144°
2026-05-06 18:07 -18.88786 -72.02034 37027 ft 498 kts 144°
2026-05-06 18:07 -18.94206 -71.97460 37025 ft 500 kts 144°
2026-05-06 18:08 -18.99634 -71.92874 37026 ft 500 kts 144°
2026-05-06 18:08 -19.05061 -71.88286 37024 ft 499 kts 144°
2026-05-06 18:09 -19.10485 -71.83696 37025 ft 499 kts 144°
2026-05-06 18:09 -19.15908 -71.79102 37029 ft 499 kts 144°
2026-05-06 18:10 -19.21322 -71.74514 37034 ft 499 kts 144°
2026-05-06 18:10 -19.26746 -71.69911 37029 ft 500 kts 144°
2026-05-06 18:11 -19.32175 -71.65301 37025 ft 500 kts 144°
2026-05-06 18:11 -19.37611 -71.60681 37027 ft 500 kts 144°
2026-05-06 18:12 -19.43032 -71.56069 37027 ft 500 kts 144°
2026-05-06 18:12 -19.48452 -71.51455 37023 ft 499 kts 144°
2026-05-06 18:13 -19.53874 -71.46834 37028 ft 500 kts 144°
2026-05-06 18:13 -19.59256 -71.42244 37027 ft 500 kts 144°
2026-05-06 18:14 -19.64680 -71.37614 37027 ft 500 kts 144°
2026-05-06 18:14 -19.70110 -71.32973 37026 ft 500 kts 144°
2026-05-06 18:15 -19.75534 -71.28335 37026 ft 500 kts 144°
2026-05-06 18:15 -19.80949 -71.23700 37034 ft 501 kts 144°
2026-05-06 18:16 -19.86381 -71.19046 37023 ft 502 kts 144°
2026-05-06 18:16 -19.91812 -71.14389 37021 ft 502 kts 144°
2026-05-06 18:17 -19.97242 -71.09728 37022 ft 502 kts 144°
2026-05-06 18:17 -20.02635 -71.05094 37019 ft 502 kts 144°
2026-05-06 18:18 -20.08066 -71.00424 37019 ft 502 kts 144°
2026-05-06 18:18 -20.13512 -70.95737 37021 ft 505 kts 144°
2026-05-06 18:19 -20.18973 -70.91033 37019 ft 505 kts 144°
2026-05-06 18:19 -20.24434 -70.86325 37023 ft 505 kts 144°
2026-05-06 18:20 -20.29886 -70.81620 37018 ft 503 kts 144°
2026-05-06 18:20 -20.35319 -70.76927 37023 ft 504 kts 144°
2026-05-06 18:21 -20.40768 -70.72209 37029 ft 505 kts 144°
2026-05-06 18:21 -20.46231 -70.67476 37024 ft 506 kts 144°
2026-05-06 18:22 -20.51660 -70.62767 37024 ft 506 kts 144°
2026-05-06 18:22 -20.57118 -70.58030 37025 ft 506 kts 144°
2026-05-06 18:23 -20.62511 -70.53346 37018 ft 506 kts 144°
2026-05-06 18:23 -20.67969 -70.48606 37032 ft 505 kts 144°
2026-05-06 18:24 -20.73436 -70.43851 37025 ft 507 kts 144°
2026-05-06 18:24 -20.78907 -70.39090 37013 ft 507 kts 144°
2026-05-06 18:25 -20.84378 -70.34324 37021 ft 508 kts 144°
2026-05-06 18:25 -20.89849 -70.29553 37030 ft 508 kts 144°
2026-05-06 18:26 -20.95316 -70.24781 37024 ft 507 kts 144°
2026-05-06 18:26 -21.00784 -70.20003 37016 ft 507 kts 144°
2026-05-06 18:27 -21.06246 -70.15225 37025 ft 506 kts 144°
2026-05-06 18:27 -21.11698 -70.10451 37031 ft 506 kts 144°
2026-05-06 18:28 -21.17106 -70.05710 37016 ft 506 kts 144°
2026-05-06 18:28 -21.22557 -70.00928 37014 ft 506 kts 144°
2026-05-06 18:29 -21.28017 -69.96133 37021 ft 508 kts 144°
2026-05-06 18:29 -21.33486 -69.91326 36995 ft 509 kts 144°
2026-05-06 18:30 -21.38955 -69.86513 37013 ft 509 kts 144°
2026-05-06 18:30 -21.44416 -69.81703 36988 ft 507 kts 144°
2026-05-06 18:31 -21.49873 -69.76892 36995 ft 508 kts 144°
2026-05-06 18:31 -21.55322 -69.72083 36997 ft 508 kts 144°
2026-05-06 18:32 -21.60772 -69.67267 36994 ft 509 kts 144°
2026-05-06 18:32 -21.66242 -69.62430 36987 ft 509 kts 144°
2026-05-06 18:33 -21.71708 -69.57591 36986 ft 509 kts 144°
2026-05-06 18:33 -21.77174 -69.52747 36983 ft 509 kts 144°
2026-05-06 18:34 -21.82637 -69.47902 36999 ft 509 kts 144°
2026-05-06 18:34 -21.88065 -69.43081 37001 ft 509 kts 144°
2026-05-06 18:35 -21.93523 -69.38229 37033 ft 509 kts 144°
2026-05-06 18:35 -21.98988 -69.33366 37030 ft 509 kts 144°
2026-05-06 18:36 -22.04447 -69.28504 37035 ft 509 kts 144°
2026-05-06 18:36 -22.09907 -69.23636 37068 ft 511 kts 144°
2026-05-06 18:37 -22.14508 -69.19529 37063 ft 512 kts 144°
2026-05-06 18:37 -22.20878 -69.13838 37059 ft 510 kts 144°
2026-05-06 18:38 -22.26341 -69.08952 37074 ft 510 kts 144°
2026-05-06 18:38 -22.30882 -69.04886 37075 ft 511 kts 144°
2026-05-06 18:39 -22.36388 -68.99952 37071 ft 512 kts 144°
2026-05-06 18:40 -22.44581 -68.92602 37073 ft 513 kts 144°
2026-05-06 18:40 -22.50145 -68.87796 37050 ft 507 kts 155°
2026-05-06 18:41 -22.56420 -68.84526 37040 ft 501 kts 161°
2026-05-06 18:41 -22.62736 -68.81362 37091 ft 501 kts 162°
2026-05-06 18:42 -22.69091 -68.78215 37074 ft 503 kts 162°
2026-05-06 18:42 -22.75455 -68.75063 37068 ft 503 kts 162°
2026-05-06 18:43 -22.81820 -68.71907 37063 ft 503 kts 162°
2026-05-06 18:43 -22.88187 -68.68747 37060 ft 503 kts 162°
2026-05-06 18:44 -22.94557 -68.65582 37061 ft 504 kts 162°
2026-05-06 18:44 -23.00891 -68.62432 37051 ft 504 kts 162°
2026-05-06 18:45 -23.07275 -68.59253 37030 ft 504 kts 162°
2026-05-06 18:45 -23.13655 -68.56074 37022 ft 504 kts 162°
2026-05-06 18:46 -23.20026 -68.52897 37057 ft 505 kts 162°
2026-05-06 18:46 -23.26416 -68.49704 37021 ft 505 kts 162°
2026-05-06 18:47 -23.32809 -68.46507 37010 ft 505 kts 162°
2026-05-06 18:47 -23.39102 -68.43359 37006 ft 505 kts 162°
2026-05-06 18:48 -23.45496 -68.40156 37010 ft 506 kts 162°
2026-05-06 18:48 -23.51903 -68.36943 37016 ft 508 kts 162°
2026-05-06 18:49 -23.58331 -68.33715 37008 ft 508 kts 162°
2026-05-06 18:49 -23.64742 -68.30493 37026 ft 508 kts 162°
2026-05-06 18:50 -23.71164 -68.27262 37047 ft 508 kts 162°
2026-05-06 18:50 -23.77585 -68.24028 37044 ft 508 kts 162°
2026-05-06 18:51 -23.83960 -68.20813 37073 ft 508 kts 162°
2026-05-06 18:51 -23.90420 -68.17552 37119 ft 508 kts 162°
2026-05-06 18:52 -23.96832 -68.14311 37121 ft 508 kts 162°
2026-05-06 18:52 -24.03204 -68.11089 37162 ft 508 kts 162°
2026-05-06 18:53 -24.09609 -68.07844 37148 ft 507 kts 162°
2026-05-06 18:53 -24.16018 -68.04594 37159 ft 508 kts 162°
2026-05-06 18:54 -24.22432 -68.01339 37118 ft 508 kts 162°
2026-05-06 18:54 -24.28806 -67.98108 37189 ft 509 kts 162°
2026-05-06 18:55 -24.35222 -67.94904 37169 ft 505 kts 162°
2026-05-06 18:55 -24.41611 -67.91690 37145 ft 504 kts 162°
2026-05-06 18:56 -24.47998 -67.88503 37125 ft 504 kts 162°
2026-05-06 18:56 -24.54377 -67.85306 37138 ft 506 kts 162°
2026-05-06 18:57 -24.60794 -67.82083 37079 ft 509 kts 162°
2026-05-06 18:57 -24.67244 -67.78840 37058 ft 510 kts 162°
2026-05-06 18:58 -24.73687 -67.75597 37051 ft 509 kts 162°
2026-05-06 18:58 -24.80128 -67.72351 37046 ft 509 kts 162°
2026-05-06 18:59 -24.86577 -67.69097 37055 ft 512 kts 163°
2026-05-06 18:59 -24.93016 -67.65844 37045 ft 513 kts 162°
2026-05-06 19:00 -24.99505 -67.62563 37054 ft 513 kts 162°
2026-05-06 19:00 -25.06001 -67.59274 37062 ft 514 kts 162°
2026-05-06 19:01 -25.12497 -67.55982 37101 ft 515 kts 163°
2026-05-06 19:01 -25.19025 -67.52669 37048 ft 516 kts 162°
2026-05-06 19:02 -25.25524 -67.49368 37066 ft 513 kts 163°
2026-05-06 19:02 -25.32028 -67.46057 37086 ft 515 kts 163°
2026-05-06 19:03 -25.38537 -67.42743 37104 ft 516 kts 163°
2026-05-06 19:03 -25.45054 -67.39419 37083 ft 515 kts 162°
2026-05-06 19:04 -25.51558 -67.36100 37096 ft 515 kts 163°
2026-05-06 19:04 -25.58050 -67.32780 37095 ft 518 kts 163°
2026-05-06 19:05 -25.64598 -67.29434 37115 ft 518 kts 163°
2026-05-06 19:05 -25.71138 -67.26074 37120 ft 518 kts 163°
2026-05-06 19:06 -25.77688 -67.22720 37124 ft 519 kts 163°
2026-05-06 19:06 -25.84253 -67.19347 37104 ft 519 kts 163°
2026-05-06 19:07 -25.90790 -67.15985 37144 ft 519 kts 163°
2026-05-06 19:07 -25.97356 -67.12605 37121 ft 520 kts 163°
2026-05-06 19:08 -26.03938 -67.09211 37090 ft 520 kts 163°
2026-05-06 19:08 -26.10505 -67.05820 37118 ft 522 kts 163°
2026-05-06 19:09 -26.17026 -67.02452 37094 ft 520 kts 164°
2026-05-06 19:09 -26.23573 -66.98987 37076 ft 522 kts 161°
2026-05-06 19:10 -26.30136 -66.95623 37086 ft 519 kts 165°
2026-05-06 19:10 -26.36386 -66.91451 37126 ft 534 kts 149°
2026-05-06 19:10 -26.39473 -66.89228 36817 ft 519 kts 164°
2026-05-06 19:11 -26.42794 -66.87963 37054 ft 497 kts 175°
2026-05-06 19:11 -26.49428 -66.85409 37079 ft 508 kts 165°
2026-05-06 19:12 -26.55840 -66.82266 37021 ft 511 kts 163°
2026-05-06 19:12 -26.62298 -66.78939 37001 ft 512 kts 162°
2026-05-06 19:13 -26.68757 -66.75570 36965 ft 512 kts 163°
2026-05-06 19:13 -26.75198 -66.72203 36933 ft 510 kts 163°
2026-05-06 19:14 -26.81624 -66.68841 36891 ft 510 kts 163°
2026-05-06 19:14 -26.88062 -66.65469 36788 ft 510 kts 163°
2026-05-06 19:15 -26.94492 -66.62098 36882 ft 511 kts 163°
2026-05-06 19:15 -27.00879 -66.58744 36774 ft 508 kts 162°
2026-05-06 19:16 -27.07286 -66.55378 36800 ft 511 kts 162°
2026-05-06 19:16 -27.13731 -66.51984 36767 ft 511 kts 162°
2026-05-06 19:17 -27.20168 -66.48593 36823 ft 512 kts 162°
2026-05-06 19:17 -27.26649 -66.45173 36779 ft 516 kts 162°
2026-05-06 19:18 -27.33151 -66.41735 36759 ft 516 kts 162°
2026-05-06 19:18 -27.39648 -66.38297 36759 ft 516 kts 162°
2026-05-06 19:19 -27.46160 -66.34840 36796 ft 518 kts 164°
2026-05-06 19:19 -27.52680 -66.31390 36750 ft 523 kts 163°
2026-05-06 19:20 -27.59310 -66.27869 36710 ft 523 kts 163°
2026-05-06 19:20 -27.65889 -66.24370 36707 ft 522 kts 163°
2026-05-06 19:21 -27.72411 -66.20897 36688 ft 524 kts 163°
2026-05-06 19:21 -27.79027 -66.17368 36689 ft 528 kts 163°
2026-05-06 19:22 -27.85666 -66.13823 36673 ft 527 kts 163°
2026-05-06 19:22 -27.92299 -66.10275 36708 ft 528 kts 163°
2026-05-06 19:23 -27.98924 -66.06729 36706 ft 526 kts 164°
2026-05-06 19:23 -28.05559 -66.03175 36707 ft 529 kts 164°
2026-05-06 19:24 -28.12291 -66.00082 36715 ft 512 kts 176°
2026-05-06 19:24 -28.19151 -65.97997 36764 ft 516 kts 174°
2026-05-06 19:24 -28.22538 -65.96593 36725 ft 525 kts 162°
2026-05-06 19:25 -28.25651 -65.94341 36728 ft 539 kts 146°
2026-05-06 19:25 -28.31683 -65.89483 36662 ft 519 kts 168°
2026-05-06 19:26 -28.38247 -65.86100 36662 ft 533 kts 156°
2026-05-06 19:26 -28.44861 -65.82774 36692 ft 512 kts 173°
2026-05-06 19:26 -28.48202 -65.81142 36571 ft 534 kts 158°
2026-05-06 19:27 -28.51393 -65.78994 36649 ft 532 kts 162°
2026-05-06 19:27 -28.58014 -65.75235 36671 ft 533 kts 163°
2026-05-06 19:28 -28.63542 -65.72151 36631 ft 532 kts 163°
2026-05-06 19:28 -28.70189 -65.68447 36680 ft 533 kts 163°
2026-05-06 19:29 -28.76847 -65.64728 36618 ft 532 kts 163°
2026-05-06 19:29 -28.83503 -65.61009 36633 ft 534 kts 163°
2026-05-06 19:30 -28.90168 -65.57278 36647 ft 532 kts 163°
2026-05-06 19:30 -28.96816 -65.53551 36644 ft 532 kts 163°
2026-05-06 19:31 -29.03381 -65.49548 36659 ft 537 kts 159°
2026-05-06 19:31 -29.06705 -65.47712 36625 ft 526 kts 167°
2026-05-06 19:31 -29.13411 -65.44255 36640 ft 531 kts 164°
2026-05-06 19:32 -29.20084 -65.40604 36645 ft 532 kts 163°
2026-05-06 19:32 -29.26703 -65.36921 36630 ft 532 kts 163°
2026-05-06 19:33 -29.33360 -65.33210 36628 ft 532 kts 163°
2026-05-06 19:33 -29.40024 -65.29489 36653 ft 532 kts 163°
2026-05-06 19:34 -29.46679 -65.25769 36621 ft 532 kts 163°
2026-05-06 19:34 -29.53331 -65.22044 36630 ft 533 kts 163°
2026-05-06 19:35 -29.59995 -65.18307 36627 ft 533 kts 163°
2026-05-06 19:35 -29.66657 -65.14565 36651 ft 533 kts 163°
2026-05-06 19:36 -29.73306 -65.10825 36636 ft 532 kts 163°
2026-05-06 19:36 -29.79919 -65.07101 36636 ft 533 kts 163°
2026-05-06 19:37 -29.86571 -65.03351 36670 ft 533 kts 163°
2026-05-06 19:37 -29.93224 -64.99597 36639 ft 532 kts 163°
2026-05-06 19:38 -29.99872 -64.95842 36640 ft 532 kts 163°
2026-05-06 19:38 -30.06524 -64.92078 36650 ft 532 kts 163°
2026-05-06 19:39 -30.13173 -64.88310 36664 ft 532 kts 163°
2026-05-06 19:39 -30.19819 -64.84538 36658 ft 532 kts 163°
2026-05-06 19:40 -30.26466 -64.80760 36659 ft 533 kts 163°
2026-05-06 19:40 -30.33119 -64.76972 36723 ft 533 kts 163°
2026-05-06 19:41 -30.39785 -64.73172 36671 ft 535 kts 163°
2026-05-06 19:41 -30.46459 -64.69362 36681 ft 536 kts 163°
2026-05-06 19:42 -30.53147 -64.65536 36693 ft 536 kts 163°
2026-05-06 19:42 -30.59829 -64.61707 36711 ft 536 kts 162°
2026-05-06 19:43 -30.66452 -64.57907 36732 ft 535 kts 162°
2026-05-06 19:43 -30.73129 -64.54069 36724 ft 535 kts 162°
2026-05-06 19:44 -30.79813 -64.50222 36765 ft 536 kts 162°
2026-05-06 19:44 -30.86477 -64.46411 36764 ft 531 kts 165°
2026-05-06 19:45 -30.93132 -64.42624 36734 ft 535 kts 161°
2026-05-06 19:45 -30.99779 -64.38706 36725 ft 534 kts 162°
2026-05-06 19:46 -31.06431 -64.34850 36699 ft 534 kts 162°
2026-05-06 19:46 -31.13084 -64.30982 36698 ft 535 kts 163°
2026-05-06 19:47 -31.19682 -64.27148 36691 ft 535 kts 163°
2026-05-06 19:47 -31.26340 -64.23274 36692 ft 535 kts 163°
2026-05-06 19:48 -31.32591 -64.18425 36668 ft 556 kts 137°
2026-05-06 19:48 -31.37526 -64.11346 36671 ft 564 kts 133°
2026-05-06 19:49 -31.42456 -64.04206 36645 ft 564 kts 133°
2026-05-06 19:49 -31.47361 -63.97066 36673 ft 562 kts 133°
2026-05-06 19:50 -31.52222 -63.89974 36666 ft 562 kts 133°
2026-05-06 19:50 -31.57114 -63.82826 36664 ft 562 kts 133°
2026-05-06 19:51 -31.61993 -63.75682 36667 ft 562 kts 133°
2026-05-06 19:51 -31.66879 -63.68514 36664 ft 562 kts 133°
2026-05-06 19:52 -31.71755 -63.61349 36670 ft 562 kts 132°
2026-05-06 19:52 -31.76632 -63.54168 36667 ft 562 kts 132°
2026-05-06 19:53 -31.81498 -63.46990 36723 ft 562 kts 132°
2026-05-06 19:53 -31.86369 -63.39793 36645 ft 562 kts 133°
2026-05-06 19:54 -31.91237 -63.32582 36664 ft 564 kts 132°
2026-05-06 19:54 -31.96077 -63.25401 36665 ft 563 kts 132°
2026-05-06 19:55 -32.00943 -63.18167 36714 ft 563 kts 132°
2026-05-06 19:55 -32.05797 -63.10938 36619 ft 562 kts 132°
2026-05-06 19:56 -32.10646 -63.03701 36665 ft 564 kts 132°
2026-05-06 19:56 -32.15501 -62.96442 36654 ft 563 kts 132°
2026-05-06 19:57 -32.20352 -62.89176 36682 ft 563 kts 132°
2026-05-06 19:57 -32.25189 -62.81916 36620 ft 562 kts 132°
2026-05-06 19:58 -32.30026 -62.74642 36655 ft 563 kts 132°
2026-05-06 19:58 -32.34863 -62.67355 36650 ft 563 kts 132°
2026-05-06 19:59 -32.39688 -62.60072 36646 ft 562 kts 131°
2026-05-06 19:59 -32.44501 -62.52791 36644 ft 562 kts 131°
2026-05-06 20:00 -32.49311 -62.45503 36643 ft 562 kts 132°
2026-05-06 20:00 -32.54123 -62.38196 36680 ft 562 kts 131°
2026-05-06 20:01 -32.58918 -62.30901 36655 ft 560 kts 131°
2026-05-06 20:01 -32.63669 -62.23661 36647 ft 560 kts 131°
2026-05-06 20:02 -32.68418 -62.16331 36638 ft 562 kts 127°
2026-05-06 20:02 -32.72831 -62.08678 36676 ft 562 kts 127°
2026-05-06 20:03 -32.77280 -62.01069 36644 ft 560 kts 128°
2026-05-06 20:03 -32.81730 -61.93457 36644 ft 561 kts 128°
2026-05-06 20:04 -32.86170 -61.85846 36649 ft 560 kts 128°
2026-05-06 20:04 -32.90608 -61.78222 36670 ft 560 kts 127°
2026-05-06 20:05 -32.95038 -61.70597 36656 ft 560 kts 127°
2026-05-06 20:05 -32.99456 -61.62978 36656 ft 560 kts 127°
2026-05-06 20:06 -33.03877 -61.55338 36660 ft 560 kts 127°
2026-05-06 20:06 -33.08291 -61.47692 36673 ft 560 kts 127°
2026-05-06 20:07 -33.12700 -61.40042 36664 ft 560 kts 127°
2026-05-06 20:07 -33.17078 -61.32429 36630 ft 560 kts 127°
2026-05-06 20:08 -33.21477 -61.24763 36711 ft 559 kts 127°
2026-05-06 20:08 -33.25865 -61.17103 36273 ft 557 kts 127°
2026-05-06 20:09 -33.28061 -61.13260 35148 ft 566 kts 126°
2026-05-06 20:09 -33.30266 -61.09363 34617 ft 563 kts 126°
2026-05-06 20:09 -33.32446 -61.05513 34158 ft 557 kts 126°
2026-05-06 20:09 -33.34614 -61.01683 33589 ft 553 kts 126°
2026-05-06 20:10 -33.36764 -60.97868 32899 ft 552 kts 126°
2026-05-06 20:10 -33.38901 -60.94067 32289 ft 549 kts 125°
2026-05-06 20:10 -33.41018 -60.90301 31805 ft 543 kts 125°
2026-05-06 20:10 -33.43111 -60.86573 31363 ft 536 kts 125°
2026-05-06 20:11 -33.45180 -60.82884 30866 ft 531 kts 124°
2026-05-06 20:11 -33.47229 -60.79227 30308 ft 528 kts 124°
2026-05-06 20:11 -33.49268 -60.75583 29769 ft 525 kts 124°
2026-05-06 20:11 -33.51266 -60.72012 29162 ft 521 kts 124°
2026-05-06 20:12 -33.53267 -60.68430 28684 ft 514 kts 124°
2026-05-06 20:12 -33.55242 -60.64891 28180 ft 509 kts 124°
2026-05-06 20:12 -33.57203 -60.61375 27672 ft 504 kts 124°
2026-05-06 20:12 -33.59140 -60.57897 27182 ft 499 kts 123°
2026-05-06 20:13 -33.61059 -60.54449 26669 ft 495 kts 123°
2026-05-06 20:13 -33.62960 -60.51029 26203 ft 491 kts 123°
2026-05-06 20:13 -33.64837 -60.47650 25741 ft 487 kts 123°
2026-05-06 20:13 -33.66708 -60.44280 25230 ft 483 kts 123°
2026-05-06 20:14 -33.68560 -60.40939 24772 ft 479 kts 123°
2026-05-06 20:14 -33.70281 -60.37832 24355 ft 476 kts 123°
2026-05-06 20:14 -33.72108 -60.34532 23869 ft 473 kts 122°
2026-05-06 20:14 -33.73922 -60.31250 23406 ft 470 kts 122°
2026-05-06 20:15 -33.75727 -60.27984 22892 ft 467 kts 122°
2026-05-06 20:15 -33.77519 -60.24738 22414 ft 463 kts 122°
2026-05-06 20:15 -33.79289 -60.21529 21964 ft 458 kts 122°
2026-05-06 20:15 -33.81039 -60.18354 21526 ft 454 kts 122°
2026-05-06 20:16 -33.82770 -60.15212 21094 ft 449 kts 122°
2026-05-06 20:16 -33.84498 -60.12100 20635 ft 447 kts 123°
2026-05-06 20:16 -33.86235 -60.09006 20179 ft 444 kts 122°
2026-05-06 20:16 -33.87952 -60.05940 19790 ft 440 kts 122°
2026-05-06 20:17 -33.89654 -60.02895 19388 ft 437 kts 122°
2026-05-06 20:17 -33.91345 -59.99869 18978 ft 434 kts 122°
2026-05-06 20:17 -33.93020 -59.96867 18581 ft 431 kts 122°
2026-05-06 20:17 -33.94688 -59.93875 18192 ft 428 kts 122°
2026-05-06 20:18 -33.95785 -59.91907 17922 ft 427 kts 122°
2026-05-06 20:18 -33.97965 -59.87992 17347 ft 423 kts 122°
2026-05-06 20:18 -33.99593 -59.85067 16969 ft 418 kts 122°
2026-05-06 20:18 -34.01203 -59.82169 16602 ft 415 kts 122°
2026-05-06 20:19 -34.02800 -59.79295 16224 ft 411 kts 122°
2026-05-06 20:19 -34.03870 -59.77367 15964 ft 409 kts 122°
2026-05-06 20:19 -34.05444 -59.74529 15597 ft 405 kts 122°
2026-05-06 20:19 -34.07005 -59.71711 15233 ft 402 kts 122°
2026-05-06 20:20 -34.08554 -59.68915 14878 ft 399 kts 123°
2026-05-06 20:20 -34.10088 -59.66143 14514 ft 396 kts 123°
2026-05-06 20:20 -34.11610 -59.63389 14154 ft 394 kts 123°
2026-05-06 20:20 -34.13125 -59.60648 13803 ft 391 kts 123°
2026-05-06 20:21 -34.14627 -59.57929 13414 ft 388 kts 123°
2026-05-06 20:21 -34.16115 -59.55228 13050 ft 386 kts 122°
2026-05-06 20:21 -34.17597 -59.52541 12680 ft 383 kts 122°
2026-05-06 20:21 -34.19067 -59.49872 12325 ft 380 kts 122°
2026-05-06 20:22 -34.20506 -59.47259 11991 ft 377 kts 122°
2026-05-06 20:22 -34.21878 -59.44588 11617 ft 372 kts 112°
2026-05-06 20:22 -34.22579 -59.41626 11232 ft 364 kts 96°
2026-05-06 20:22 -34.23048 -59.38636 10931 ft 360 kts 96°
2026-05-06 20:23 -34.23511 -59.35682 10614 ft 357 kts 96°
2026-05-06 20:23 -34.23963 -59.32745 10325 ft 352 kts 96°
2026-05-06 20:23 -34.24398 -59.29908 10153 ft 335 kts 95°
2026-05-06 20:23 -34.24810 -59.27208 10040 ft 319 kts 95°
2026-05-06 20:24 -34.25202 -59.24630 9916 ft 304 kts 94°
2026-05-06 20:24 -34.25575 -59.22163 9801 ft 296 kts 94°
2026-05-06 20:24 -34.25949 -59.19681 9593 ft 305 kts 94°
2026-05-06 20:24 -34.26334 -59.17141 9273 ft 310 kts 94°
2026-05-06 20:25 -34.26722 -59.14573 8962 ft 311 kts 95°
2026-05-06 20:25 -34.27109 -59.11999 8663 ft 311 kts 94°
2026-05-06 20:25 -34.27496 -59.09429 8366 ft 311 kts 94°
2026-05-06 20:25 -34.27882 -59.06860 8078 ft 309 kts 94°
2026-05-06 20:26 -34.28266 -59.04313 7781 ft 307 kts 95°
2026-05-06 20:26 -34.28635 -59.01847 7487 ft 305 kts 94°
2026-05-06 20:26 -34.29011 -58.99332 7210 ft 303 kts 94°
2026-05-06 20:26 -34.29386 -58.96829 6920 ft 301 kts 94°
2026-05-06 20:27 -34.29756 -58.94345 6643 ft 299 kts 94°
2026-05-06 20:27 -34.30125 -58.91875 6367 ft 298 kts 94°
2026-05-06 20:27 -34.30491 -58.89415 6079 ft 297 kts 95°
2026-05-06 20:27 -34.30856 -58.86956 5772 ft 297 kts 95°
2026-05-06 20:28 -34.31220 -58.84505 5482 ft 296 kts 95°
2026-05-06 20:28 -34.31582 -58.82056 5195 ft 295 kts 94°
2026-05-06 20:28 -34.31941 -58.79634 4953 ft 291 kts 94°
2026-05-06 20:28 -34.32294 -58.77249 4932 ft 283 kts 94°
2026-05-06 20:29 -34.32744 -58.74893 5411 ft 297 kts 107°
2026-05-06 20:29 -34.33855 -58.72811 5446 ft 303 kts 136°
2026-05-06 20:29 -34.35625 -58.71462 5567 ft 301 kts 164°
2026-05-06 20:29 -34.37662 -58.71134 5666 ft 293 kts 192°
2026-05-06 20:30 -34.39560 -58.71808 5688 ft 279 kts 218°
2026-05-06 20:30 -34.41773 -58.75162 5705 ft 247 kts 264°
2026-05-06 20:30 -34.41928 -58.77175 5712 ft 237 kts 280°
2026-05-06 20:31 -34.41808 -58.79161 5704 ft 236 kts 282°
2026-05-06 20:31 -34.41628 -58.81121 5702 ft 235 kts 283°
2026-05-06 20:31 -34.41397 -58.83080 5703 ft 235 kts 285°
2026-05-06 20:31 -34.41121 -58.85028 5703 ft 235 kts 286°
2026-05-06 20:32 -34.40821 -58.86971 5712 ft 235 kts 286°
2026-05-06 20:32 -34.40420 -58.88878 5683 ft 231 kts 298°
2026-05-06 20:32 -34.39531 -58.90456 5701 ft 227 kts 317°
2026-05-06 20:32 -34.38233 -58.91531 5585 ft 228 kts 335°
2026-05-06 20:33 -34.36686 -58.91961 5530 ft 232 kts 353°
2026-05-06 20:33 -34.35067 -58.91699 5535 ft 242 kts 11°
2026-05-06 20:33 -34.33539 -58.90748 5544 ft 254 kts 29°
2026-05-06 20:33 -34.32296 -58.89166 5536 ft 267 kts 49°
2026-05-06 20:34 -34.31538 -58.87063 5537 ft 281 kts 71°
2026-05-06 20:34 -34.31460 -58.84660 5548 ft 292 kts 90°
2026-05-06 20:34 -34.31707 -58.82221 5549 ft 293 kts 92°
2026-05-06 20:34 -34.32001 -58.79783 5569 ft 294 kts 93°
2026-05-06 20:35 -34.32327 -58.77332 5606 ft 295 kts 94°
2026-05-06 20:35 -34.32782 -58.74918 5612 ft 299 kts 109°